Погода в Шишовке

Россия / Воронежская область     51°14′39″N   40°11′38″E
темп.,
°C
ветер,
м/с
пор.,
м/с
влажн.,
%
обл.,
%
осадки,
мм/ч
давл.,
гПа
погр.,
м
22 мая, вс
вс2200:00+9юв3891100 0.1 1003326
03:00+9вюв4896100 0.8 1000321
06:00+9всв4698100 1.3 997275
09:00+9всв5897100 2.9 996428
12:00+9в6995100 0.8 995594
15:00+9всв5796100 1.9 995584
18:00+9всв6995100 0.6 996761
21:00+8св81393100 2.8 997883
23 мая, пн
пн2300:00+7ссв61195100 1.8 999514
03:00+8ссв4109266 2.1 1000492
06:00+5с59925 0.0 1003329
09:00+8с67681 0.0 1005861
12:00+11ссз565272 0.0 10061747
15:00+11ссз5652100 0.0 10061730
18:00+10ссз365956 0.0 10071386
21:00+6зсз33765 0.0 100847
24 мая, вт
вт2400:00+5з37815 0.0 1009118
03:00+4з49854 0.0 1009156
06:00+5з411800 0.0 1009305
09:00+12з58575 0.0 1009812
12:00+15зсз7847100 0.0 10082354
15:00+14зсз6859100 0.0 10091649
18:00+14сз585848 0.1 10091002
21:00+10зсз247181 0.1 1011104
25 мая, ср
ср2500:00+9зсз388695 0.2 1012216
03:00+4с35905 0.3 101498
06:00+5ссз36855 0.0 1015236
09:00+10ссз356112 0.0 1016981
12:00+13сз5855100 0.0 10161790
15:00+12ссз456194 0.0 10161026
18:00+12с456633 0.0 1017933
21:00+9ссв2277100 0.0 101819
26 мая, чт
чт2600:00+7ююз118599 0.0 101810
03:00+8ююз368098 0.0 1017173
06:00+9ю248574 0.1 1016175
09:00+15зюз477399 0.3 1014623
12:00+20зюз794985 0.0 10132178
15:00+20юз9125553 0.1 10112157
18:00+17зюз101564100 0.2 10091412
21:00+11юз81595100 4.3 1008916